IFC91 VOPB-VOPB

Flight info

Callsign IFC91
Flight time N/A
Altitude 13000
Route D341Q DCT 12N092E 1145N9200E DCT 1130N9215E 113000N921500E
Aircraft F18/M-SDGHITUY/LB1

Departure

Time 2026-04-13 14:25
Airport Veer Savarkar International Airport / INS Utkrosh (VOPB)

Arrival

Time N/A
Airport Veer Savarkar International Airport / INS Utkrosh (VOPB)
Time Latitude Longitude Altitude Speed Heading
2026-04-13 14:20 11.64933 92.73345 35 ft 0 kts 309°
2026-04-13 14:21 11.64934 92.73344 35 ft 1 kts 316°
2026-04-13 14:22 11.64938 92.73363 37 ft 7 kts 108°
2026-04-13 14:22 11.64941 92.73431 38 ft 11 kts 85°
2026-04-13 14:22 11.64936 92.73474 39 ft 0 kts 112°
2026-04-13 14:23 11.64931 92.73485 36 ft 6 kts 116°
2026-04-13 14:23 11.64924 92.73554 39 ft 14 kts 48°
2026-04-13 14:23 11.65035 92.73634 39 ft 25 kts 34°
2026-04-13 14:23 11.65186 92.73748 37 ft 25 kts 35°
2026-04-13 14:24 11.65288 92.73793 37 ft 9 kts 82°
2026-04-13 14:24 11.65232 92.73799 37 ft 0 kts 220°
2026-04-13 14:24 11.65108 92.73706 37 ft 67 kts 215°
2026-04-13 14:25 11.64467 92.73235 48 ft 154 kts 213°
2026-04-13 14:25 11.63440 92.72495 300 ft 213 kts 216°
2026-04-13 14:25 11.62041 92.71417 468 ft 294 kts 218°
2026-04-13 14:25 11.60719 92.69851 1491 ft 306 kts 284°
2026-04-13 14:26 11.60687 92.67452 1314 ft 376 kts 250°
2026-04-13 14:26 11.58740 92.65938 2604 ft 386 kts 183°
2026-04-13 14:26 11.56038 92.65967 3414 ft 385 kts 142°
2026-04-13 14:26 11.54548 92.67884 4010 ft 416 kts 116°
2026-04-13 14:27 11.55485 92.69808 4345 ft 405 kts
2026-04-13 14:27 11.58146 92.70099 3677 ft 339 kts
2026-04-13 14:27 11.60133 92.70600 2652 ft 249 kts 24°
2026-04-13 14:27 11.61507 92.71375 1804 ft 201 kts 24°
2026-04-13 14:28 11.62694 92.71977 659 ft 188 kts 28°
2026-04-13 14:28 11.63703 92.72662 59 ft 154 kts 41°
2026-04-13 14:28 11.64062 92.72983 38 ft 91 kts 43°